TimeEST,TemperatureF,Dew PointF,Humidity,Sea Level PressureIn,VisibilityMPH,Wind Direction,Wind SpeedMPH,Gust SpeedMPH,PrecipitationIn,Events,Conditions,WindDirDegrees,DateUTC
12:53 AM,37.9,24.1,57,30.10,10.0,NW,5.8,-,N/A,,Clear,320,2012-12-20 05:53:00
1:53 AM,37.0,24.1,59,30.11,10.0,WNW,3.5,-,N/A,,Clear,300,2012-12-20 06:53:00
2:53 AM,36.0,24.1,62,30.13,10.0,NW,6.9,-,N/A,,Clear,320,2012-12-20 07:53:00
3:53 AM,36.0,24.1,62,30.14,10.0,NW,3.5,-,N/A,,Clear,320,2012-12-20 08:53:00
4:53 AM,30.9,24.1,76,30.13,10.0,Calm,Calm,-,N/A,,Clear,0,2012-12-20 09:53:00
5:53 AM,34.0,24.1,67,30.16,10.0,North,4.6,-,N/A,,Clear,350,2012-12-20 10:53:00
7:53 AM,30.0,26.1,85,30.20,10.0,Calm,Calm,-,N/A,,Clear,0,2012-12-20 12:53:00
8:53 AM,36.0,26.1,67,30.22,10.0,North,5.8,-,N/A,,Clear,10,2012-12-20 13:53:00
9:53 AM,37.9,25.0,60,30.22,10.0,NNE,6.9,-,N/A,,Clear,30,2012-12-20 14:53:00
10:53 AM,39.9,26.1,58,30.19,10.0,North,9.2,-,N/A,,Clear,10,2012-12-20 15:53:00
11:53 AM,41.0,26.1,55,30.17,10.0,Calm,Calm,-,N/A,,Clear,0,2012-12-20 16:53:00
12:53 PM,43.0,27.0,53,30.15,10.0,NE,3.5,-,N/A,,Clear,50,2012-12-20 17:53:00
1:53 PM,43.0,26.1,51,30.11,10.0,Calm,Calm,-,N/A,,Clear,0,2012-12-20 18:53:00
2:53 PM,44.1,27.0,51,30.11,10.0,Calm,Calm,-,N/A,,Clear,0,2012-12-20 19:53:00
3:53 PM,43.0,27.0,53,30.12,10.0,Calm,Calm,-,N/A,,Clear,0,2012-12-20 20:53:00
4:53 PM,42.1,28.0,58,30.10,10.0,South,8.1,-,N/A,,Clear,170,2012-12-20 21:53:00
5:53 PM,41.0,28.0,60,30.09,10.0,SE,3.5,-,N/A,,Clear,140,2012-12-20 22:53:00
6:53 PM,39.9,28.9,65,30.09,10.0,Calm,Calm,-,N/A,,Clear,0,2012-12-20 23:53:00
7:53 PM,41.0,30.9,67,30.09,10.0,SE,4.6,-,N/A,,Overcast,140,2012-12-21 00:53:00
8:16 PM,41.0,30.2,65,30.07,10.0,ESE,3.5,-,N/A,,Overcast,110,2012-12-21 01:16:00
8:53 PM,41.0,30.9,67,30.06,10.0,Calm,Calm,-,N/A,,Overcast,0,2012-12-21 01:53:00
9:53 PM,41.0,30.9,67,30.02,10.0,East,10.4,16.1,N/A,,Overcast,100,2012-12-21 02:53:00
10:28 PM,39.2,32.0,75,29.99,7.0,East,10.4,16.1,0.01,Rain,Rain,80,2012-12-21 03:28:00
10:53 PM,39.0,33.1,79,30.00,4.0,Calm,Calm,-,0.07,Rain,Rain,0,2012-12-21 03:53:00
11:01 PM,39.2,33.8,81,30.00,5.0,Calm,Calm,-,0.01,Rain,Rain,0,2012-12-21 04:01:00
11:53 PM,37.9,34.0,86,29.98,10.0,Calm,Calm,-,0.03,Rain,Light Rain,0,2012-12-21 04:53:00